• In Czech Republic
  • List of Countries
  • For 7 days
  • Water Temperature
  • Satellite Maps
  • Weather Map
  • Weather Widgets
  • user-avatar
    Login

    Hourly Weather Adelaide

    Today, 18 February, Sunday

    Time Temperature Precipitation Wind Pressure Humidity
    00:00 +21°C° 0 mm 2 mps 754 mmHg 62%
    01:00 +21°C° 0 mm 3 mps 754 mmHg 62%
    02:00 +21°C° 0 mm 3 mps 753 mmHg 63%
    03:00 +21°C° 0 mm 2 mps 753 mmHg 61%
    04:00 +21°C° 0 mm 2 mps 753 mmHg 60%
    05:00 +21°C° 0 mm 3 mps 753 mmHg 60%
    06:00 +21°C° 0 mm 3 mps 754 mmHg 59%
    07:00 +22°C° 0 mm 3 mps 754 mmHg 56%
    08:00 +24°C° 0 mm 2 mps 754 mmHg 52%
    09:00 +27°C° 0 mm 3 mps 755 mmHg 44%
    10:00 +26°C° 0.6 mm 3 mps 755 mmHg 49%
    11:00 +25°C° 0.6 mm 3 mps 755 mmHg 54%
    12:00 +25°C° 0.6 mm 3 mps 755 mmHg 59%
    13:00 +25°C° 0.1 mm 3 mps 755 mmHg 56%
    14:00 +26°C° 0.1 mm 2 mps 755 mmHg 54%
    15:00 +24°C° 0 mm 1 mps 755 mmHg 65%
    16:00 +24°C° 0 mm 1 mps 755 mmHg 64%
    17:00 +25°C° 0 mm 2 mps 755 mmHg 62%
    18:00 +25°C° 0 mm 2 mps 755 mmHg 61%
    19:00 +24°C° 0 mm 3 mps 755 mmHg 65%
    20:00 +22°C° 0 mm 4 mps 755 mmHg 70%
    21:00 +21°C° 0 mm 4 mps 756 mmHg 78%
    22:00 +20°C° 0 mm 4 mps 756 mmHg 78%
    23:00 +20°C° 0 mm 4 mps 756 mmHg 78%

    Tomorrow, 19 February, Monday

    Time Temperature Precipitation Wind Pressure Humidity
    00:00 +20°C° 0 mm 4 mps 756 mmHg 78%
    01:00 +20°C° 0 mm 4 mps 756 mmHg 79%
    02:00 +19°C° 0 mm 5 mps 756 mmHg 79%
    03:00 +19°C° 0 mm 5 mps 756 mmHg 79%
    04:00 +19°C° 0 mm 5 mps 756 mmHg 79%
    05:00 +19°C° 0 mm 5 mps 756 mmHg 79%
    06:00 +19°C° 0 mm 5 mps 757 mmHg 79%
    07:00 +20°C° 0 mm 5 mps 757 mmHg 72%
    08:00 +22°C° 0 mm 5 mps 757 mmHg 65%
    09:00 +23°C° 0 mm 5 mps 757 mmHg 58%
    10:00 +26°C° 0 mm 5 mps 756 mmHg 53%
    11:00 +27°C° 0 mm 5 mps 756 mmHg 48%
    12:00 +29°C° 0 mm 5 mps 756 mmHg 43%
    13:00 +29°C° 0 mm 6 mps 755 mmHg 41%
    14:00 +30°C° 0 mm 6 mps 755 mmHg 40%
    15:00 +30°C° 0 mm 6 mps 754 mmHg 39%
    16:00 +29°C° 0 mm 6 mps 754 mmHg 43%
    17:00 +28°C° 0 mm 6 mps 754 mmHg 46%
    18:00 +27°C° 0 mm 6 mps 754 mmHg 50%
    19:00 +26°C° 0 mm 6 mps 755 mmHg 54%
    20:00 +25°C° 0 mm 5 mps 755 mmHg 57%
    21:00 +23°C° 0 mm 5 mps 755 mmHg 61%
    22:00 +23°C° 0 mm 5 mps 755 mmHg 59%
    23:00 +23°C° 0 mm 4 mps 755 mmHg 57%

    Day after tomorrow, 20 February, Tuesday

    Time Temperature Precipitation Wind Pressure Humidity
    00:00 +23°C° 0 mm 4 mps 755 mmHg 56%
    01:00 +23°C° 0 mm 4 mps 755 mmHg 57%
    02:00 +23°C° 0 mm 4 mps 755 mmHg 58%
    03:00 +22°C° 0 mm 4 mps 755 mmHg 60%
    04:00 +22°C° 0 mm 4 mps 755 mmHg 61%
    05:00 +23°C° 0 mm 4 mps 755 mmHg 62%
    06:00 +24°C° 0 mm 3 mps 755 mmHg 63%
    07:00 +26°C° 0 mm 3 mps 755 mmHg 56%
    08:00 +28°C° 0 mm 4 mps 756 mmHg 49%
    09:00 +30°C° 0 mm 4 mps 756 mmHg 42%
    10:00 +33°C° 0 mm 3 mps 756 mmHg 38%
    11:00 +35°C° 0 mm 3 mps 755 mmHg 34%
    12:00 +36°C° 0 mm 3 mps 755 mmHg 30%
    13:00 +37°C° 0 mm 3 mps 754 mmHg 29%
    14:00 +37°C° 0 mm 4 mps 753 mmHg 29%
    15:00 +37°C° 0 mm 4 mps 753 mmHg 29%
    16:00 +36°C° 0 mm 4 mps 753 mmHg 30%
    17:00 +35°C° 0 mm 4 mps 753 mmHg 32%
    18:00 +34°C° 0 mm 5 mps 753 mmHg 34%
    19:00 +33°C° 0 mm 5 mps 753 mmHg 37%
    20:00 +30°C° 0 mm 5 mps 753 mmHg 41%
    21:00 +29°C° 0 mm 5 mps 754 mmHg 44%
    22:00 +29°C° 0 mm 4 mps 754 mmHg 44%
    23:00 +29°C° 0 mm 4 mps 753 mmHg 43%

    21 February, Wednesday

    Time Temperature Precipitation Wind Pressure Humidity
    00:00 +29°C° 0 mm 3 mps 753 mmHg 43%
    01:00 +30°C° 0 mm 4 mps 753 mmHg 39%
    02:00 +30°C° 0 mm 5 mps 753 mmHg 35%
    03:00 +32°C° 0 mm 5 mps 752 mmHg 31%
    04:00 +30°C° 0 mm 5 mps 753 mmHg 33%
    05:00 +30°C° 0 mm 4 mps 753 mmHg 35%
    06:00 +30°C° 0 mm 4 mps 753 mmHg 37%
    07:00 +29°C° 0.4 mm 3 mps 754 mmHg 39%
    08:00 +29°C° 0.4 mm 3 mps 754 mmHg 42%
    09:00 +29°C° 0.4 mm 3 mps 755 mmHg 44%
    10:00 +28°C° 0.7 mm 3 mps 755 mmHg 49%
    11:00 +27°C° 0.7 mm 3 mps 754 mmHg 54%
    12:00 +27°C° 0.7 mm 4 mps 754 mmHg 58%
    13:00 +26°C° 0.9 mm 3 mps 754 mmHg 60%
    14:00 +26°C° 0.9 mm 3 mps 754 mmHg 62%
    15:00 +26°C° 0.9 mm 3 mps 754 mmHg 64%
    16:00 +26°C° 0.7 mm 2 mps 754 mmHg 66%
    17:00 +26°C° 0.7 mm 2 mps 754 mmHg 67%
    18:00 +26°C° 0.7 mm 2 mps 754 mmHg 69%
    19:00 +26°C° 0.3 mm 2 mps 755 mmHg 69%
    20:00 +26°C° 0.3 mm 2 mps 755 mmHg 69%
    21:00 +26°C° 0.3 mm 3 mps 755 mmHg 69%
    22:00 +26°C° 0 mm 3 mps 755 mmHg 68%
    23:00 +26°C° 0 mm 3 mps 754 mmHg 68%

    22 February, Thursday

    Time Temperature Precipitation Wind Pressure Humidity
    00:00 +25°C° 0 mm 3 mps 754 mmHg 67%
    01:00 +25°C° 0 mm 3 mps 754 mmHg 67%
    02:00 +25°C° 0 mm 4 mps 753 mmHg 68%
    03:00 +25°C° 0 mm 4 mps 753 mmHg 68%
    04:00 +25°C° 0.1 mm 4 mps 753 mmHg 66%
    05:00 +25°C° 0.1 mm 4 mps 753 mmHg 63%
    06:00 +25°C° 0.1 mm 4 mps 753 mmHg 61%
    07:00 +26°C° 0.3 mm 4 mps 754 mmHg 56%
    08:00 +26°C° 0.3 mm 4 mps 754 mmHg 50%
    09:00 +27°C° 0.3 mm 4 mps 754 mmHg 45%
    10:00 +27°C° 0.3 mm 4 mps 754 mmHg 45%
    11:00 +27°C° 0.3 mm 4 mps 754 mmHg 44%
    12:00 +27°C° 0.3 mm 4 mps 754 mmHg 44%
    13:00 +27°C° 0.1 mm 5 mps 753 mmHg 45%
    14:00 +27°C° 0.1 mm 6 mps 753 mmHg 46%
    15:00 +27°C° 0.1 mm 6 mps 752 mmHg 48%
    16:00 +27°C° 0 mm 7 mps 752 mmHg 47%
    17:00 +27°C° 0 mm 7 mps 751 mmHg 47%
    18:00 +27°C° 0 mm 8 mps 751 mmHg 47%
    19:00 +27°C° 0 mm 8 mps 751 mmHg 48%
    20:00 +26°C° 0 mm 8 mps 751 mmHg 48%
    21:00 +26°C° 0 mm 8 mps 751 mmHg 49%
    22:00 +26°C° 0 mm 8 mps 750 mmHg 49%
    23:00 +26°C° 0 mm 7 mps 750 mmHg 49%

    23 February, Friday

    Time Temperature Precipitation Wind Pressure Humidity
    00:00 +26°C° 0 mm 7 mps 750 mmHg 50%
    01:00 +26°C° 0 mm 7 mps 749 mmHg 48%
    02:00 +27°C° 0 mm 7 mps 749 mmHg 47%
    03:00 +27°C° 0 mm 6 mps 749 mmHg 45%
    04:00 +27°C° 0 mm 6 mps 750 mmHg 44%
    05:00 +27°C° 0 mm 6 mps 750 mmHg 43%
    06:00 +28°C° 0 mm 6 mps 750 mmHg 42%
    07:00 +30°C° 0 mm 6 mps 750 mmHg 39%
    08:00 +33°C° 0 mm 6 mps 750 mmHg 37%
    09:00 +35°C° 0 mm 7 mps 750 mmHg 34%
    10:00 +35°C° 0 mm 7 mps 750 mmHg 36%
    11:00 +35°C° 0 mm 7 mps 749 mmHg 37%
    12:00 +36°C° 0 mm 7 mps 749 mmHg 39%
    13:00 +35°C° 0 mm 7 mps 749 mmHg 41%
    14:00 +35°C° 0 mm 6 mps 749 mmHg 43%
    15:00 +34°C° 0 mm 6 mps 748 mmHg 45%
    16:00 +33°C° 0 mm 5 mps 749 mmHg 49%
    17:00 +32°C° 0 mm 5 mps 749 mmHg 53%
    18:00 +30°C° 0 mm 4 mps 750 mmHg 58%
    19:00 +28°C° 0 mm 4 mps 750 mmHg 63%
    20:00 +27°C° 0 mm 4 mps 751 mmHg 68%
    21:00 +26°C° 0 mm 4 mps 752 mmHg 73%
    22:00 +25°C° 0 mm 4 mps 752 mmHg 75%
    23:00 +25°C° 0 mm 5 mps 752 mmHg 78%
    Show more